Vorticity
4 5 7 12 12 10 8 6 6 10 14 30 30 13 12 7 16 11 11 14 14 13 17 18 21 17 35 20 -7 7 32 16 9 8 7 10 8 7 7 4 5 6 10 8 5 1 2
3 2 3 13 13 9 7 7 10 11 26 24 7 11 10 7 6 12 11 14 16 15 13 17 14 21 36 26 7 -51 17 22 11 9 10 9 11 8 7 10 9 18 6 4 11 3 9
3 4 1 4 16 9 6 8 15 15 19 9 16 9 5 9 14 17 10 5 3 15 11 7 16 20 35 14 23 -1 -0 17 14 9 11 11 11 14 -1 17 14 -15 14 20 7 3 14
4 3 4 8 15 8 9 6 28 10 13 16 13 11 14 6 13 14 10 6 9 -4 12 14 21 13 40 10 -2 13 -10 4 21 11 11 17 7 12 16 6 27 11 2 9 26 12 6
6 3 6 17 11 6 6 21 20 15 12 8 16 10 15 15 18 12 11 10 9 -0 32 18 8 17 45 9 9 -2 23 -1 21 10 13 9 8 4 6 4 9 25 15 6 -6 16 21
4 5 5 16 9 4 20 15 14 16 11 10 18 23 21 12 9 15 9 9 -3 8 23 15 12 15 53 -6 23 11 9 -1 20 11 11 8 -3 9 3 7 -2 4 -3 19 28 12 -13
5 3 8 17 7 5 17 13 23 9 13 13 12 18 10 0 3 1 15 12 3 16 22 6 19 14 16 17 0 15 4 15 18 10 6 9 2 6 1 11 -13 21 16 8 13 4 -4
5 2 8 17 6 14 12 16 23 19 13 11 12 13 10 10 9 22 9 14 15 13 25 19 36 13 9 28 17 14 3 9 10 8 12 18 5 10 19 1 7 13 14 15 9 6 9
4 3 8 16 7 18 11 19 13 14 14 13 20 18 20 14 35 24 17 11 17 12 25 10 31 -5 32 4 20 2 -14 38 7 -5 -15 45 25 -2 9 2 -9 11 8 2 -5 4 4
3 5 8 21 6 16 12 18 13 17 14 14 26 23 25 22 1 7 16 14 20 28 12 46 28 -4 25 -1 17 18 2 15 23 -9 62 31 1 9 7 6 -2 -7 -1 6 -3 6 8
4 3 6 20 6 16 13 16 16 16 24 16 11 17 21 39 28 18 18 26 14 -15 0 20 9 36 8 -3 40 15 7 -13 -7 28 -23 57 20 31 32 18 2 -5 11 18 12 9 10
5 3 -0 22 6 16 11 16 12 5 8 14 9 14 17 22 21 17 20 -9 -4 9 2 17 21 32 32 38 -0 11 -16 12 11 9 32 12 12 2 14 21 38 27 8 4 5 7 12
5 6 7 22 5 15 11 15 11 6 4 8 6 1 -1 -8 -1 -5 -20 11 7 21 4 14 43 -4 12 8 13 1 25 18 1 -13 13 3 6 12 15 4 6 -12 2 5 5 9 5
6 5 10 11 4 12 13 11 17 4 8 -1 -1 3 4 0 12 27 20 15 16 31 40 46 16 13 23 5 4 -4 37 -7 11 18 -8 6 2 -2 15 -5 21 -1 -4 3 10 8 7
7 5 8 5 11 8 15 11 10 6 4 -2 4 9 15 16 26 15 14 10 25 -9 21 -7 32 6 0 -1 12 -13 9 1 3 16 13 3 22 -4 8 -0 8 23 6 6 -0 7 8
10 3 7 6 22 7 16 12 9 5 5 8 20 22 25 18 21 16 13 32 31 22 14 -4 -5 21 20 1 11 6 -1 11 8 6 -5 14 10 8 16 9 8 -2 20 11 10 6 7
12 3 6 7 29 7 15 10 10 4 1 5 17 6 21 16 8 8 6 4 6 6 -9 -11 8 20 15 5 16 7 3 28 -2 3 10 11 5 28 4 3 10 8 0 5 9 4 9
11 7 6 9 25 5 10 15 10 10 4 10 16 9 6 19 1 -2 -4 -5 10 2 8 11 24 2 -11 25 2 -6 -1 27 4 5 2 11 9 2 4 9 15 12 10 -5 -1 17 6
10 8 10 10 11 8 7 15 10 7 6 10 7 2 22 34 13 11 9 1 1 5 -5 10 26 -1 16 -3 24 -5 8 1 32 5 9 11 14 5 18 15 9 14 10 -0 -1 1 8
10 9 9 8 15 30 3 11 16 6 1 3 16 1 -1 11 17 4 0 10 4 2 2 12 7 15 26 6 -10 23 6 5 -2 3 2 6 6 2 8 7 20 12 19 16 -4 10 8
7 7 10 10 11 23 3 5 13 19 1 2 6 6 24 5 10 9 15 13 12 7 11 9 7 15 11 5 5 23 2 12 22 22 1 -6 7 12 5 -0 -2 3 15 21 10 -7 -5
6 7 8 7 8 11 20 1 8 13 18 2 4 8 12 9 13 10 9 14 16 21 20 10 19 11 -1 12 1 25 16 13 -7 22 7 -5 -2 13 21 16 13 10 10 1 7 15 14
11 9 5 8 8 16 18 14 4 10 16 15 4 2 4 14 6 2 1 10 5 -3 13 20 9 7 6 10 9 25 14 12 20 22 12 3 21 8 14 10 11 30 44 25 10 5 4
11 7 4 7 9 15 14 11 12 8 10 17 20 7 4 5 16 3 9 5 -1 1 11 8 14 13 16 18 21 11 8 15 -15 16 14 5 0 5 13 13 12 14 2 13 27 25 18
13 7 5 7 9 16 15 14 8 -1 9 10 10 25 9 6 10 8 7 10 7 7 8 7 7 -1 9 6 5 3 8 9 12 13 18 7 2 1 7 9 -4 16 15 7 8 17 7
9 7 7 8 12 16 18 16 10 12 -9 10 7 6 26 12 10 10 5 5 2 7 6 4 7 7 8 5 5 9 9 9 16 11 11 9 10 -2 15 6 3 22 10 5 4 11 -8
7 6 6 13 16 14 18 16 6 7 26 -9 9 6 9 20 16 18 3 5 4 4 6 8 5 6 10 11 5 7 8 8 10 2 32 3 8 3 4 1 17 17 1 10 9 9 8
7 5 7 17 14 14 19 14 9 5 6 24 -3 -5 5 9 11 23 7 2 5 3 4 12 15 15 10 6 8 8 13 7 10 5 8 13 12 10 28 7 23 16 11 -7 5 5 2
4 6 9 16 17 14 16 14 10 15 6 6 1 16 3 1 -11 8 27 9 5 7 5 7 -2 18 11 12 7 10 12 9 3 4 18 9 -9 10 -9 29 11 6 5 17 7 4 4
Height
3104 3098 3091 3084 3076 3070 3064 3058 3049 3041 3034 3025 3019 3015 3011 3008 3006 3004 3003 3002 3000 2999 2999 2999 3000 3004 3006 3015 3021 3027 3030 3035 3042 3048 3055 3060 3066 3071 3076 3081 3086 3090 3094 3100 3108 3110 3114
3101 3094 3087 3080 3072 3064 3057 3050 3041 3033 3025 3018 3014 3010 3006 3003 3001 2999 2998 2996 2995 2995 2994 2993 2994 2996 2999 3007 3014 3021 3029 3031 3037 3043 3051 3057 3062 3069 3075 3078 3083 3088 3093 3097 3103 3107 3109
3098 3092 3084 3076 3066 3060 3052 3044 3034 3025 3019 3013 3010 3005 3001 2998 2995 2994 2993 2992 2992 2991 2990 2990 2990 2990 2992 2999 3010 3018 3024 3028 3035 3042 3049 3055 3061 3067 3070 3076 3081 3086 3091 3094 3098 3102 3104
3095 3088 3080 3072 3062 3055 3047 3038 3028 3021 3014 3008 3004 3000 2996 2994 2991 2989 2988 2989 2988 2987 2986 2985 2984 2986 2987 2999 3006 3015 3021 3026 3032 3039 3049 3056 3060 3066 3070 3073 3077 3082 3088 3090 3093 3096 3099
3092 3085 3077 3068 3059 3050 3042 3032 3023 3016 3010 3004 2999 2995 2991 2988 2985 2985 2985 2985 2985 2984 2980 2980 2981 2983 2987 2997 3005 3013 3019 3025 3031 3038 3047 3055 3059 3063 3067 3069 3074 3078 3079 3084 3089 3091 3095
3090 3083 3074 3064 3056 3048 3038 3028 3020 3012 3006 3000 2994 2989 2986 2984 2982 2981 2980 2981 2981 2979 2978 2977 2978 2983 2987 2996 3004 3010 3017 3024 3030 3036 3045 3051 3055 3059 3062 3064 3065 3070 3077 3081 3085 3089 3090
3087 3080 3071 3062 3053 3044 3035 3025 3015 3009 3002 2996 2991 2987 2983 2981 2979 2978 2977 2977 2980 2978 2976 2977 2979 2982 2989 2995 3003 3010 3018 3024 3029 3035 3039 3046 3050 3047 3055 3061 3066 3072 3077 3080 3083 3084 3086
3085 3077 3068 3059 3051 3041 3033 3022 3013 3006 3000 2995 2988 2983 2979 2972 2973 2972 2974 2974 2974 2975 2974 2976 2978 2984 2989 2995 3002 3011 3018 3024 3027 3032 3038 3043 3045 3052 3058 3063 3067 3072 3075 3078 3080 3081 3084
3083 3075 3066 3057 3050 3039 3032 3022 3014 3008 3000 2994 2987 2981 2975 2971 2967 2965 2971 2973 2972 2973 2975 2979 2979 2983 2992 2999 3002 3011 3017 3022 3027 3030 3025 3035 3044 3051 3055 3061 3067 3071 3073 3075 3078 3079 3081
3080 3073 3065 3057 3049 3039 3032 3024 3016 3009 3002 2995 2988 2980 2974 2970 2971 2969 2971 2972 2973 2975 2979 2984 2985 2989 2996 3001 3006 3014 3017 3025 3026 3031 3033 3038 3042 3049 3051 3058 3064 3069 3073 3074 3076 3078 3079
3079 3071 3065 3057 3049 3040 3033 3025 3019 3013 3005 2999 2992 2984 2977 2971 2971 2972 2973 2974 2976 2978 2983 2993 2991 2994 2997 3003 3007 3013 3018 3021 3022 3028 3036 3038 3041 3045 3051 3056 3062 3067 3071 3072 3074 3076 3077
3078 3071 3064 3056 3049 3041 3035 3028 3023 3018 3012 3003 2997 2990 2984 2980 2977 2976 2977 2980 2981 2983 2988 2995 2996 2999 3002 3005 3010 3015 3022 3025 3029 3033 3037 3041 3040 3046 3051 3056 3061 3065 3070 3072 3073 3075 3077
3076 3070 3063 3056 3050 3043 3037 3031 3026 3021 3017 3010 3004 2996 2993 2990 2987 2985 2985 2983 2985 2987 2996 2999 2999 3003 3005 3010 3016 3021 3023 3028 3031 3035 3039 3042 3045 3049 3052 3056 3062 3066 3068 3070 3074 3075 3073
3074 3069 3061 3055 3050 3044 3038 3034 3030 3024 3021 3015 3008 3001 3000 2996 2992 2988 2987 2987 2988 2996 2996 3001 3005 3008 3010 3015 3020 3022 3025 3029 3033 3035 3039 3043 3052 3053 3055 3058 3060 3064 3067 3067 3069 3071 3070
3072 3067 3061 3054 3050 3045 3040 3036 3031 3027 3022 3019 3013 3007 3004 3000 2995 2993 2993 2991 3000 3001 3004 3006 3009 3013 3017 3020 3023 3027 3030 3033 3035 3037 3040 3044 3049 3052 3055 3057 3061 3062 3063 3066 3068 3070 3070
3070 3065 3059 3053 3049 3045 3040 3037 3033 3029 3025 3021 3017 3012 3007 3004 3002 2997 2996 2998 3004 3006 3009 3012 3012 3017 3020 3024 3027 3030 3032 3034 3036 3039 3041 3044 3048 3052 3053 3056 3059 3060 3063 3066 3066 3071 3069
3068 3063 3057 3051 3047 3045 3041 3037 3035 3031 3027 3024 3020 3017 3013 3010 3008 3005 3001 3007 3011 3013 3015 3017 3016 3018 3021 3024 3028 3031 3033 3036 3038 3040 3043 3045 3048 3054 3055 3056 3057 3060 3061 3063 3064 3065 3063
3064 3059 3055 3050 3046 3043 3040 3037 3036 3033 3029 3027 3024 3020 3018 3016 3014 3012 3012 3013 3016 3018 3018 3018 3018 3020 3022 3025 3028 3031 3034 3036 3038 3041 3043 3045 3047 3051 3054 3054 3055 3057 3059 3062 3061 3062 3061
3063 3057 3052 3049 3044 3041 3039 3036 3035 3034 3031 3029 3027 3024 3022 3020 3018 3018 3018 3018 3019 3020 3020 3020 3020 3023 3024 3027 3031 3032 3034 3036 3038 3041 3043 3045 3047 3049 3053 3056 3054 3054 3056 3057 3059 3058 3060
3061 3056 3051 3047 3042 3039 3038 3035 3034 3033 3032 3030 3029 3028 3026 3025 3023 3023 3022 3022 3022 3022 3022 3022 3023 3024 3025 3028 3029 3031 3033 3036 3038 3040 3042 3044 3046 3047 3049 3049 3049 3050 3050 3053 3057 3057 3056
3059 3054 3049 3044 3041 3037 3036 3034 3032 3031 3031 3031 3029 3028 3027 3026 3025 3025 3025 3024 3024 3024 3024 3024 3024 3025 3027 3028 3029 3030 3032 3034 3036 3038 3041 3044 3045 3046 3047 3047 3048 3048 3048 3050 3051 3052 3052
3056 3052 3048 3043 3039 3035 3033 3032 3031 3029 3029 3030 3029 3029 3027 3026 3025 3026 3026 3026 3024 3024 3024 3024 3025 3026 3028 3029 3030 3029 3031 3033 3035 3037 3039 3042 3044 3044 3044 3044 3044 3044 3046 3047 3048 3048 3047
3052 3049 3045 3041 3036 3033 3030 3029 3029 3027 3026 3025 3025 3026 3027 3026 3026 3027 3027 3026 3026 3026 3026 3026 3026 3027 3028 3029 3029 3029 3031 3034 3035 3036 3038 3041 3042 3044 3043 3043 3043 3042 3038 3039 3041 3042 3045
3048 3045 3042 3038 3034 3030 3027 3025 3025 3024 3024 3023 3021 3022 3023 3024 3024 3025 3025 3025 3025 3026 3027 3027 3027 3028 3029 3029 3029 3030 3032 3034 3035 3036 3037 3039 3041 3042 3042 3042 3044 3037 3036 3037 3037 3039 3040
3042 3040 3038 3034 3030 3027 3022 3021 3020 3020 3020 3020 3018 3018 3018 3019 3021 3022 3023 3024 3024 3025 3026 3027 3028 3029 3029 3030 3031 3032 3033 3034 3034 3035 3036 3038 3040 3041 3041 3040 3037 3035 3036 3037 3037 3039 3038
3036 3034 3032 3029 3025 3022 3018 3016 3015 3015 3016 3016 3015 3014 3014 3015 3017 3018 3020 3021 3022 3023 3024 3025 3026 3028 3029 3030 3031 3031 3031 3032 3033 3034 3034 3036 3038 3040 3039 3039 3036 3034 3034 3035 3036 3038 3037
3031 3028 3025 3023 3019 3017 3014 3012 3011 3009 3009 3010 3010 3010 3009 3009 3012 3013 3015 3017 3019 3020 3021 3023 3024 3025 3027 3028 3029 3030 3031 3031 3031 3031 3032 3034 3035 3036 3037 3036 3032 3032 3033 3034 3037 3041 3036
3025 3022 3020 3016 3014 3011 3009 3007 3006 3005 3003 3004 3004 3004 3003 3002 3006 3006 3008 3011 3013 3016 3018 3020 3022 3022 3024 3026 3028 3028 3028 3029 3029 3029 3029 3030 3031 3031 3033 3035 3031 3029 3031 3033 3034 3033 3034
3019 3016 3013 3010 3007 3005 3003 3002 3001 2999 2998 2998 2999 2996 2995 2994 2998 2997 2999 3003 3006 3010 3014 3016 3018 3018 3020 3022 3024 3026 3026 3026 3026 3026 3027 3029 3028 3028 3029 3027 3027 3027 3028 3030 3030 3031 3032